Theta_e
348 348 347 347 347 346 349 351 350 351 351 350 350 349 349 349 349 349 348 348 347 346 344 345 345 346 348 345 347 347 347 346 346 346 345 345 346 345 345 346 346 346 347 346 343 344 345 344 342 342 341 339 336 327 327 327 328 331 329 329 331 329
347 347 347 346 346 346 347 348 346 347 348 348 349 349 347 346 347 344 347 345 343 345 341 341 343 348 344 346 345 347 346 346 346 345 344 344 345 344 344 345 346 345 346 344 340 333 336 344 341 340 338 336 328 327 328 328 328 328 329 327 328 333
346 346 346 345 345 345 345 344 344 345 346 347 347 346 344 345 342 343 342 342 343 341 340 341 343 345 344 346 345 346 346 346 346 345 344 344 344 344 344 343 344 345 344 340 333 332 331 334 336 340 337 330 327 327 327 327 327 327 326 328 326 336
345 345 345 344 344 342 343 344 345 345 344 344 344 344 343 343 342 341 341 341 340 340 339 338 347 348 347 343 343 345 345 346 346 345 345 343 344 343 343 343 344 342 335 334 331 331 329 328 328 327 327 327 327 327 327 327 326 327 328 331 329 336
345 345 344 344 344 344 344 344 345 345 344 344 343 342 341 340 340 340 339 339 339 339 338 340 339 339 337 338 336 339 339 338 335 335 339 330 331 334 330 327 326 328 325 330 330 330 329 328 328 328 327 327 327 327 328 328 327 327 327 327 331 336
344 343 343 343 344 344 344 343 344 344 344 344 343 341 339 339 339 339 339 339 340 337 337 336 335 336 335 334 335 334 334 333 331 333 334 329 326 326 324 325 325 328 327 326 328 330 331 329 327 327 327 327 327 327 327 326 326 327 328 329 333 334
343 342 342 343 343 344 343 343 343 342 342 341 341 339 338 339 339 339 338 339 337 336 335 334 335 335 335 334 334 333 332 331 330 330 332 329 326 324 324 324 322 323 322 323 325 328 330 327 328 329 328 329 328 327 327 326 326 327 328 329 334 336
341 341 341 343 343 343 342 342 342 344 341 341 339 338 338 338 338 338 338 339 338 336 335 334 335 336 335 333 334 333 331 330 329 328 333 330 326 323 323 322 322 323 324 324 325 328 329 328 328 329 329 328 328 327 327 327 327 327 327 326 330 335
340 341 341 342 342 341 341 340 342 341 339 342 336 336 337 337 337 336 337 338 338 334 333 334 335 335 333 333 332 332 331 329 328 329 329 327 326 324 323 322 322 323 321 322 322 326 327 327 327 329 329 329 328 327 327 326 326 326 326 327 329 333
340 340 340 341 340 339 339 339 340 338 337 339 334 335 336 336 335 335 335 336 337 335 335 334 334 333 334 333 332 331 330 328 328 326 326 327 325 324 322 320 323 324 324 323 325 329 326 327 329 329 329 329 328 328 327 326 326 327 328 328 329 333
339 340 339 339 338 338 338 338 339 336 335 333 333 336 336 336 336 336 335 334 335 336 334 334 333 333 332 331 330 329 328 327 326 326 327 325 325 325 323 323 325 324 324 324 325 326 327 328 327 329 329 330 328 328 327 327 328 329 328 327 328 329
339 339 338 337 337 336 336 336 336 336 333 332 334 334 335 335 336 334 334 333 333 334 335 334 333 332 332 330 329 329 328 327 326 326 326 326 328 327 326 327 326 325 326 326 327 327 327 327 327 328 329 329 329 328 328 328 329 329 328 326 327 327
338 338 337 335 336 335 335 334 333 332 330 333 333 334 334 335 334 334 335 334 334 335 335 334 332 332 333 329 329 328 328 328 327 328 330 330 330 328 328 328 327 327 327 327 327 327 328 327 328 329 331 330 329 329 329 329 329 329 327 326 325 324
338 337 336 334 334 334 334 333 334 332 333 332 332 334 335 334 335 334 334 334 335 336 335 333 332 331 331 329 328 328 328 328 329 329 331 330 328 327 327 327 326 327 330 326 325 325 327 328 329 331 331 331 330 329 329 329 328 328 327 326 324 325
337 335 336 333 334 333 334 334 334 333 333 332 332 332 333 334 334 333 334 334 335 336 334 333 332 331 330 330 329 328 328 329 329 329 329 329 329 326 328 327 327 326 325 326 326 327 327 328 329 330 331 332 331 331 330 329 329 327 326 324 326 324
335 333 334 333 333 333 334 334 334 335 333 332 332 332 334 336 334 333 333 333 334 335 334 333 333 331 330 329 329 329 329 330 330 329 328 328 328 327 327 327 326 326 325 325 326 325 327 328 330 330 332 332 332 332 331 331 329 328 325 326 325 324
334 333 331 332 333 332 333 334 334 335 333 332 332 332 335 337 335 334 333 333 334 335 333 333 333 332 330 330 329 329 329 330 330 329 328 328 327 326 326 326 325 326 326 324 325 326 327 329 330 331 332 332 332 332 331 330 328 326 325 324 322 323
332 333 332 332 332 331 333 333 334 334 333 332 332 332 336 337 336 334 333 332 333 334 333 333 333 332 331 331 330 330 329 330 330 329 328 327 326 325 325 326 325 324 325 326 325 325 327 329 331 331 331 331 331 331 331 330 329 329 326 326 326 327
330 331 332 332 332 332 334 334 333 333 332 333 333 333 336 337 336 334 333 332 333 334 334 333 333 332 331 331 329 329 329 329 329 328 327 326 326 326 326 324 325 325 325 323 324 326 328 330 330 330 329 330 330 330 330 329 329 326 325 325 328 330
330 330 331 331 332 331 333 332 331 332 333 333 334 334 336 336 335 334 334 333 333 333 333 333 332 332 332 331 329 329 329 329 328 327 326 325 325 326 326 325 325 325 324 326 326 327 328 329 328 328 328 329 329 329 329 328 328 328 327 327 328 327
331 330 330 330 330 329 330 331 331 332 332 334 334 335 335 335 334 334 332 332 333 332 333 332 332 331 331 333 330 329 328 328 327 327 326 325 325 326 326 325 326 325 324 324 325 328 328 329 326 324 326 326 327 330 330 329 328 326 325 325 325 326
331 330 330 331 331 330 331 332 332 332 333 334 334 333 333 334 333 333 331 331 332 330 332 332 332 331 331 330 328 328 328 328 327 326 326 325 324 329 326 325 325 322 322 324 324 328 328 328 324 322 321 321 323 325 327 327 327 327 328 328 328 327
331 330 330 331 331 330 332 333 332 332 334 333 335 336 335 334 333 331 331 331 331 331 332 331 332 332 331 330 328 328 328 328 327 328 326 325 326 326 325 325 324 323 322 320 325 329 327 322 322 324 323 320 317 317 320 322 326 327 328 328 329 328
330 330 330 330 332 332 332 333 334 332 334 333 332 335 334 333 330 330 330 332 331 331 331 331 331 332 331 330 329 328 328 327 327 328 327 326 325 325 325 324 324 324 324 323 325 326 325 322 325 322 316 316 316 317 314 317 319 324 328 328 328 327
329 329 330 330 331 331 332 332 332 332 332 332 333 333 332 330 331 331 332 331 330 330 331 331 331 331 331 330 329 328 328 327 328 327 327 327 326 326 326 325 325 324 324 324 324 325 325 321 324 322 319 316 313 314 314 317 320 320 326 325 326 326
328 327 329 329 329 330 331 331 330 330 328 328 328 329 328 328 329 329 330 332 330 330 331 331 331 331 331 330 328 328 327 327 327 328 328 328 327 326 326 325 325 325 323 324 325 325 323 322 324 323 319 316 318 314 314 318 318 312 323 325 326 327
326 326 329 329 328 329 330 331 330 330 330 329 328 330 332 332 330 330 331 331 330 329 330 330 330 330 330 330 328 328 328 328 328 328 330 328 327 326 327 327 327 325 324 324 324 322 323 322 321 322 321 319 319 317 321 318 314 317 314 320 324 323
326 328 329 330 329 328 328 328 329 329 330 330 330 329 331 331 331 330 328 329 328 328 329 330 329 329 329 330 329 328 328 329 329 330 331 329 329 328 327 327 328 326 325 325 324 322 321 322 321 320 320 318 317 319 322 315 317 317 316 314 317 323
327 327 327 327 328 329 329 328 328 330 330 330 330 330 331 331 330 329 326 324 326 327 327 328 328 328 328 329 330 328 329 329 330 330 331 329 328 329 328 326 326 325 324 324 325 324 323 322 321 320 317 314 318 317 315 315 318 315 316 315 316 318
326 327 328 327 328 329 329 330 329 329 329 328 328 329 330 328 328 327 325 323 324 325 325 326 327 328 327 329 330 330 330 330 330 330 330 328 327 328 328 327 327 326 325 324 324 324 324 323 322 320 319 317 315 313 314 313 314 314 315 316 315 316
326 328 329 329 330 329 329 329 329 328 328 327 326 327 328 327 327 326 325 323 323 324 325 325 326 327 327 328 329 330 330 330 330 331 330 328 327 327 327 327 326 326 325 325 324 324 323 321 322 320 318 319 319 319 316 313 314 315 314 313 316 317
326 327 328 329 329 329 330 330 329 328 327 327 326 327 327 326 326 325 324 323 322 322 323 324 324 325 326 327 328 328 330 329 328 328 328 328 327 327 327 327 326 326 326 325 324 324 323 321 321 320 318 319 320 319 317 316 317 317 316 315 317 317
325 327 327 328 328 328 328 329 329 328 326 325 326 326 326 325 325 325 324 323 322 323 321 322 323 325 325 326 328 327 328 327 327 327 326 326 326 327 327 326 326 325 325 324 324 324 322 322 322 321 320 318 319 319 317 317 319 317 316 317 317 315
324 326 327 327 327 327 329 330 329 328 327 326 325 325 326 325 324 325 323 323 323 323 323 324 323 325 326 327 327 328 328 328 328 326 326 326 326 327 327 327 325 325 324 325 324 324 324 322 322 322 321 319 318 318 316 319 319 318 317 317 314 315
323 324 324 325 326 327 328 329 329 328 328 327 325 326 326 326 325 324 322 323 323 323 323 323 324 325 325 326 326 325 326 326 326 325 325 326 328 327 327 327 326 325 325 324 324 324 322 322 322 321 319 321 320 318 318 320 320 319 319 319 318 316
325 325 325 326 325 326 327 329 329 326 327 327 325 325 324 324 325 324 323 323 323 323 323 323 324 324 324 325 324 324 325 325 325 325 325 326 326 327 326 326 324 324 323 326 323 322 322 322 322 321 321 319 320 319 319 320 320 320 320 319 319 318
324 326 326 326 325 326 327 328 328 327 326 325 325 324 325 324 323 323 323 323 323 322 322 322 324 324 324 323 324 324 324 323 324 324 324 325 326 325 326 326 325 323 323 323 323 322 321 322 321 321 320 320 321 320 319 320 320 320 320 319 319 319
Wind_Speed
7 7 7 6 6 6 8 13 11 13 13 12 12 13 12 13 13 11 11 11 10 6 5 5 7 6 13 8 10 13 11 10 10 9 7 7 7 8 8 8 7 7 10 11 9 9 7 12 14 14 13 13 13 7 5 5 5 4 3 3 3 4
8 9 8 6 5 6 6 9 6 7 7 9 10 11 9 7 8 5 11 9 5 5 4 4 5 7 5 8 9 13 12 11 10 9 7 7 7 7 7 7 6 7 11 11 9 5 4 11 15 13 13 13 7 5 4 4 4 4 4 3 3 5
9 8 9 7 5 5 6 5 6 6 6 9 8 7 5 6 4 5 5 5 5 4 4 3 4 5 5 10 9 12 11 11 10 9 7 7 7 7 6 6 5 7 12 11 6 4 6 6 7 13 11 7 5 5 5 4 4 4 3 3 2 8
9 8 7 6 5 5 5 6 5 5 5 5 5 5 5 5 4 3 4 4 4 4 4 2 8 11 10 5 7 11 12 11 10 9 8 5 6 6 6 5 5 7 6 4 5 5 6 6 6 6 6 5 5 5 5 4 3 4 3 3 3 10
7 6 6 6 6 5 6 5 4 4 4 4 5 5 5 4 4 4 4 4 4 4 4 3 2 2 2 3 3 4 4 3 3 3 5 4 4 4 3 2 2 4 4 5 5 5 5 6 5 5 5 5 5 4 4 3 3 3 3 3 3 9
6 6 6 6 5 6 7 5 4 4 4 4 5 5 4 5 5 5 4 5 5 4 3 3 2 2 2 2 3 3 3 3 3 3 3 4 4 2 1 1 2 3 4 3 6 4 5 5 5 5 5 5 5 5 5 4 3 2 4 3 5 10
5 5 5 3 4 4 4 3 3 4 4 4 4 5 5 4 5 5 5 5 6 5 4 3 3 3 3 2 3 3 3 2 3 3 2 4 3 2 0 0 1 3 3 3 5 4 5 5 4 5 5 5 5 5 4 4 3 3 4 4 5 11
2 3 3 4 4 3 3 4 4 5 5 5 5 5 4 4 4 4 3 4 4 4 5 4 3 3 3 2 3 2 2 2 2 3 2 3 4 2 1 0 2 4 2 1 2 6 5 4 5 5 5 4 4 4 4 4 3 3 3 2 3 8
3 4 3 4 4 2 3 3 4 4 5 6 5 5 5 4 4 3 4 4 4 5 3 4 4 4 3 2 2 2 3 2 2 2 2 2 3 3 1 1 4 3 1 0 2 6 5 4 4 5 6 5 5 4 4 3 3 3 3 3 4 7
3 3 3 3 2 3 3 4 3 4 3 5 4 4 4 4 4 4 4 3 4 5 5 4 4 3 4 3 2 1 2 2 3 2 2 3 2 3 3 3 3 2 2 2 5 5 5 5 5 3 4 6 5 5 4 4 4 4 3 4 3 5
5 3 2 2 3 2 1 1 2 3 3 4 3 4 3 3 4 4 4 3 3 4 4 4 4 4 3 3 2 2 2 2 2 3 3 2 1 2 2 4 4 4 3 5 5 4 5 5 4 3 3 5 5 4 4 3 3 3 3 3 3 4
7 7 6 5 3 2 3 4 3 1 3 5 4 5 5 5 5 4 4 4 3 4 4 4 4 4 3 3 3 2 2 2 2 2 2 3 3 2 3 4 4 3 4 5 5 5 5 5 4 3 4 5 4 5 4 4 4 4 3 3 4 3
7 7 7 8 8 7 6 4 2 2 1 3 5 5 6 6 6 6 5 5 4 4 3 4 4 4 3 4 2 2 2 1 1 1 3 3 4 3 5 5 4 4 5 5 6 6 5 5 5 4 4 4 4 4 4 4 4 4 3 3 4 3
10 10 9 8 5 6 7 7 6 5 4 4 4 5 5 5 5 5 5 5 5 5 4 4 4 3 4 3 3 3 3 2 1 3 4 6 5 4 5 5 4 4 4 5 5 5 6 5 5 5 5 4 4 4 4 4 4 4 3 3 3 4
9 10 10 9 7 6 5 5 5 5 5 4 4 3 4 4 4 4 4 5 5 5 4 4 3 5 4 4 4 3 3 3 2 3 5 5 5 2 5 5 4 6 5 5 5 4 6 7 6 6 5 4 5 4 3 4 4 3 3 2 4 3
1 2 4 7 8 8 8 6 5 6 6 5 4 4 4 5 4 4 5 5 5 5 5 4 4 4 5 4 5 5 4 3 3 3 4 4 4 4 4 4 3 6 6 4 6 5 5 7 5 6 5 5 4 4 4 4 4 3 2 3 3 3
5 4 2 4 7 4 3 5 5 4 5 5 5 5 4 4 4 4 5 5 5 5 5 5 5 4 5 5 4 4 4 4 3 4 5 5 4 3 4 5 3 2 4 5 6 7 7 6 6 5 5 5 5 4 3 3 3 3 2 3 3 3
7 6 8 9 5 4 3 1 2 3 2 3 5 5 4 4 5 5 5 5 5 5 5 5 5 4 4 4 4 4 4 4 3 3 4 5 4 3 2 4 5 3 4 6 6 7 8 7 7 7 5 5 6 4 3 3 3 3 3 3 2 3
14 14 13 8 6 7 5 2 3 5 3 3 3 4 4 4 5 5 6 6 5 5 5 5 5 5 5 4 5 4 5 4 3 3 4 4 5 4 3 3 5 4 4 3 5 6 8 7 7 6 6 6 5 3 3 3 3 3 3 2 3 3
12 15 12 8 8 7 7 7 6 6 8 8 5 5 4 5 5 5 5 5 5 5 5 5 4 5 5 5 5 5 5 4 3 4 4 4 4 5 6 6 4 6 6 5 4 6 8 8 7 7 8 6 4 4 4 3 3 2 2 2 2 3
6 5 7 6 3 7 7 7 6 6 7 7 7 6 5 5 5 4 2 2 5 5 5 5 5 5 5 5 4 4 5 4 4 4 4 4 3 4 4 4 6 4 7 7 4 5 7 8 8 6 6 6 5 4 4 4 4 3 2 1 2 3
4 7 10 7 7 7 6 7 6 6 7 6 7 8 7 5 5 4 5 5 4 4 3 5 6 5 4 5 5 4 5 5 5 4 3 3 3 3 4 4 5 4 1 5 4 6 8 8 4 5 6 4 3 4 4 4 3 3 2 2 2 3
7 11 17 22 20 17 13 10 9 6 7 3 3 4 4 3 3 3 4 5 5 6 6 4 4 5 5 5 5 5 5 5 5 5 5 4 4 5 5 6 6 6 6 2 3 5 5 2 6 6 5 4 2 2 1 2 2 3 2 2 2 2
12 10 10 8 10 15 16 15 10 6 5 4 3 3 3 4 5 4 4 5 4 4 5 5 4 4 4 4 5 5 4 5 5 5 6 6 5 6 7 6 5 5 7 7 4 3 3 4 8 10 5 1 2 0 3 1 2 0 1 3 2 3
12 12 11 7 5 5 7 7 6 6 5 5 4 4 4 4 5 6 5 5 6 5 5 6 6 5 4 5 4 4 5 5 5 5 5 5 6 7 8 7 7 7 7 8 7 3 3 2 6 1 7 5 2 1 2 2 2 1 2 2 2 3
6 4 4 5 1 4 8 10 8 6 7 7 6 8 9 8 7 6 5 3 4 5 5 5 5 5 5 4 5 4 4 5 5 6 5 6 5 5 6 7 7 7 5 4 9 7 6 2 5 4 1 1 3 5 5 4 3 2 1 2 1 3
3 4 6 5 3 3 6 9 13 14 11 10 8 5 4 4 5 4 3 5 5 5 5 7 6 6 6 5 5 5 5 5 5 5 5 5 6 7 7 7 6 6 6 5 5 8 8 5 2 3 2 0 0 1 7 8 4 4 3 1 1 2
5 4 5 4 1 3 5 4 3 4 4 6 7 5 6 4 4 6 6 6 5 5 5 5 6 6 6 6 5 5 5 5 5 6 6 6 7 6 6 5 7 6 5 6 7 8 7 6 8 5 2 2 2 3 6 2 4 5 4 5 3 2
5 6 6 6 4 2 2 4 3 4 5 4 5 5 5 5 5 4 4 3 4 4 5 5 5 6 5 6 6 6 6 5 5 5 6 6 5 6 8 8 7 6 6 6 6 6 7 8 7 6 5 3 5 4 2 1 4 2 4 4 1 3
3 4 4 5 5 5 5 3 0 0 2 2 4 4 6 6 6 5 5 4 4 4 5 5 5 5 5 5 5 6 6 6 6 6 5 6 6 7 7 8 9 8 6 7 5 6 7 6 6 5 4 6 4 3 3 2 1 3 3 1 4 6
3 4 4 4 4 3 3 1 0 1 3 4 5 6 6 6 6 5 6 5 5 5 5 6 5 5 5 5 5 5 6 6 5 5 6 6 6 7 7 8 8 7 7 7 6 6 4 4 6 5 4 6 7 9 8 5 7 5 4 4 5 4
6 6 5 5 4 3 2 1 1 2 4 5 6 7 8 8 8 8 7 6 5 4 5 5 5 5 5 5 5 5 5 5 5 5 6 6 5 6 6 6 6 7 7 6 5 6 4 5 6 5 4 4 6 5 4 5 6 6 7 6 7 7
6 6 6 7 7 5 1 3 4 4 4 3 4 7 8 7 7 7 7 6 5 6 5 5 5 6 6 7 6 6 6 6 5 5 5 5 5 5 5 5 6 6 6 6 7 6 6 6 7 7 6 4 4 5 5 3 6 6 4 6 6 7
5 6 7 6 8 9 9 7 6 7 7 7 5 5 6 7 7 7 7 7 7 7 6 6 6 7 6 6 6 6 6 6 6 5 5 5 5 5 5 6 6 6 6 6 5 6 7 6 6 5 5 5 4 5 3 5 6 6 7 7 6 7
2 3 6 8 7 8 8 10 9 8 8 8 7 6 6 6 7 7 7 7 7 6 7 6 6 5 4 6 6 5 6 6 6 5 5 4 5 5 5 5 6 6 5 5 6 6 5 6 6 5 4 6 6 5 5 6 7 6 6 8 9 8
6 6 6 8 8 10 10 8 7 8 9 9 9 8 7 5 5 6 7 7 7 6 6 5 5 5 5 6 6 6 6 6 5 5 5 5 5 6 5 6 5 5 5 3 6 5 5 5 6 6 6 4 5 5 5 6 6 6 6 7 7 7
4 4 5 6 6 6 8 10 10 9 8 8 10 11 9 8 7 6 5 5 6 5 3 3 6 4 6 4 6 6 6 5 5 5 5 5 6 5 5 6 6 6 5 4 5 5 5 6 5 5 5 6 6 6 5 5 5 6 6 6 6 7
Wind_Direction
138 138 140 142 144 143 155 146 140 141 142 141 137 140 142 147 145 146 147 139 130 123 127 138 137 142 137 130 132 131 131 130 126 124 119 110 102 95 91 89 87 83 78 74 73 71 89 123 120 120 119 116 105 94 102 101 102 100 89 90 101 122
147 150 148 147 145 147 152 145 138 147 146 146 145 144 144 140 143 141 147 137 125 127 121 126 141 142 127 139 136 136 136 134 130 126 122 114 106 99 94 90 85 78 78 74 71 68 71 123 118 114 112 105 98 105 106 108 104 102 96 90 95 110
156 153 151 147 144 143 138 138 151 147 150 154 152 139 136 138 133 137 130 131 132 122 128 136 135 144 143 144 141 141 140 137 133 131 127 117 108 101 95 89 82 80 79 79 65 69 86 99 110 113 108 103 113 115 113 111 110 106 112 118 132 127
155 153 149 142 134 133 141 150 152 144 139 146 142 136 137 140 132 125 126 117 121 122 113 115 155 151 148 143 146 145 145 139 135 132 127 105 101 103 92 81 79 77 81 79 78 82 90 96 100 103 112 119 122 124 118 116 116 118 118 117 132 130
148 148 143 144 149 152 146 150 145 142 141 141 130 130 128 115 123 129 122 117 119 124 128 147 151 129 109 135 121 131 134 119 113 100 102 85 68 61 59 53 31 57 70 88 89 90 93 96 105 116 119 124 122 116 111 110 116 113 101 103 112 122
147 148 150 159 157 152 151 148 144 143 133 125 131 128 125 134 137 145 137 127 116 112 117 121 115 124 147 135 130 128 130 127 114 120 102 100 84 74 44 28 48 49 55 78 96 104 99 109 113 111 119 118 118 118 119 118 115 104 112 118 123 120
148 145 143 128 113 136 136 128 111 116 121 123 123 128 137 147 153 156 143 136 131 129 137 147 147 158 166 150 141 148 152 150 140 127 127 118 106 83 71 19 39 49 45 49 94 110 112 109 117 124 123 124 124 121 122 123 123 122 118 121 134 133
96 100 115 120 130 133 111 117 130 142 123 137 131 133 143 160 156 154 131 127 121 133 149 155 169 166 172 155 162 161 151 146 141 143 127 125 120 111 107 60 45 47 35 39 88 108 119 119 123 128 128 126 122 122 123 129 129 115 111 110 122 131
106 117 112 133 144 101 112 120 142 137 140 146 137 147 155 156 149 127 124 125 131 138 146 158 171 173 154 172 159 157 164 172 161 159 137 142 138 144 156 80 73 70 78 55 74 109 115 109 117 126 131 134 132 128 126 118 111 111 104 98 104 131
125 128 122 135 123 127 132 157 156 145 155 137 143 147 148 148 131 127 120 126 146 155 163 166 169 161 166 172 170 156 174 184 172 161 144 158 177 153 146 90 88 101 88 65 78 108 110 111 109 123 140 133 133 133 127 125 120 111 101 94 110 131
124 135 54 43 30 51 77 150 145 132 119 129 138 127 131 126 125 135 138 143 159 164 153 153 161 170 173 159 166 169 208 203 165 173 169 150 115 139 137 121 134 144 123 97 91 87 99 101 103 123 135 128 129 120 117 114 107 99 93 92 94 109
141 134 136 114 100 52 20 7 350 4 120 139 145 149 151 146 147 149 149 156 158 160 159 161 161 169 164 161 181 173 206 207 209 189 143 132 132 130 104 96 116 113 103 105 101 85 88 104 104 109 120 117 119 120 120 119 106 98 97 86 88 92
130 134 145 161 169 155 140 149 206 283 252 184 157 154 156 162 160 164 164 157 158 163 162 160 165 172 162 168 161 149 195 214 153 128 150 129 111 107 95 99 85 88 96 99 98 93 87 83 98 102 105 112 118 115 118 109 102 99 97 95 91 92
152 155 160 169 169 167 161 160 168 182 203 198 176 158 162 162 165 166 160 156 162 164 151 153 155 158 162 156 150 165 172 159 155 165 140 122 123 127 107 106 114 101 99 101 104 106 99 91 93 96 98 110 102 109 111 103 98 100 104 98 101 88
167 165 164 167 168 178 161 155 161 165 182 190 175 158 151 158 164 160 150 159 162 159 154 159 160 157 166 156 155 163 171 146 179 166 134 133 130 117 116 127 133 108 96 92 98 96 102 112 115 110 110 110 116 107 99 104 101 103 102 106 93 90
25 196 192 177 178 178 168 159 149 176 175 172 166 170 170 174 166 152 157 163 167 159 158 166 164 163 160 164 161 165 156 140 176 151 123 109 122 138 118 118 127 134 115 102 108 97 99 111 111 115 111 112 105 110 110 109 106 99 107 99 97 94
158 193 267 220 206 159 122 126 151 176 177 165 172 178 179 164 155 161 162 171 171 160 161 169 167 170 164 162 162 157 150 150 170 155 137 130 136 142 142 135 115 83 112 128 116 107 102 103 114 121 108 105 111 113 102 101 107 115 110 99 98 91
139 166 203 209 191 109 96 109 136 127 145 199 181 178 175 162 167 169 170 174 171 163 161 167 167 167 170 168 162 155 141 144 157 151 131 124 133 131 129 130 120 76 105 124 126 124 117 107 114 112 83 84 102 101 105 103 114 122 111 117 90 95
161 174 202 186 119 100 102 100 94 119 160 231 209 185 178 170 173 173 179 171 169 166 164 168 168 167 167 165 156 150 141 147 152 145 125 125 131 130 115 115 130 104 71 71 127 128 120 112 108 95 84 82 82 81 107 103 89 88 84 96 130 118
182 179 178 136 127 136 157 172 167 158 185 194 194 193 194 184 173 180 173 169 173 165 168 158 164 172 169 167 161 155 144 141 143 140 139 138 140 143 141 136 131 123 113 100 89 116 116 110 97 91 91 82 83 75 65 72 79 70 93 126 100 97
201 134 94 86 120 158 181 186 180 187 196 187 185 188 194 188 184 157 131 171 178 168 160 151 164 176 171 168 160 146 139 135 137 145 158 158 155 153 133 129 135 128 133 123 117 119 117 117 114 93 84 79 74 82 82 71 71 58 29 338 155 107
92 109 105 143 178 176 199 197 173 184 194 188 177 182 190 190 190 125 165 181 168 151 180 176 169 166 160 168 160 159 154 151 149 152 153 136 149 144 127 130 134 103 60 130 135 146 142 127 88 119 119 106 73 70 78 73 75 83 85 75 53 94
177 163 187 190 179 176 175 176 177 179 188 159 169 174 178 171 147 141 181 169 166 166 175 174 170 168 166 171 172 166 167 155 157 153 142 148 158 152 153 154 159 146 125 47 103 144 146 101 125 111 92 97 98 84 21 49 56 47 104 92 115 130
196 204 209 222 205 180 169 168 163 141 151 148 144 142 139 152 126 160 184 165 163 165 171 155 178 176 163 173 174 177 162 160 164 164 159 160 170 162 155 159 156 155 141 132 154 157 147 129 132 132 124 137 145 222 135 197 93 30 132 145 136 124
203 208 220 223 202 154 143 127 114 103 120 111 119 148 159 166 164 177 167 155 172 171 173 163 175 178 179 172 178 172 169 170 162 165 163 167 176 177 168 164 165 157 170 155 154 137 171 129 159 119 127 129 66 251 221 119 135 55 68 139 134 138
236 302 350 12 340 172 156 154 144 157 160 167 161 172 184 176 161 169 166 163 153 172 171 168 175 177 176 167 180 181 175 172 166 167 176 179 178 166 163 165 172 167 171 188 152 150 161 215 185 183 219 84 163 169 168 153 151 179 27 16 109 138
349 16 14 27 354 300 192 183 180 184 186 182 178 174 166 176 155 118 157 196 174 173 175 169 177 180 180 178 175 182 183 181 178 174 175 168 177 177 175 174 165 172 174 154 142 155 167 173 168 249 239 133 91 149 137 142 180 99 175 173 156 112
15 10 13 30 44 335 304 271 199 165 168 177 176 153 151 157 133 142 177 195 176 181 181 178 174 184 184 180 175 183 186 184 186 186 178 179 182 179 167 173 176 174 164 172 165 161 165 170 175 201 189 150 84 123 140 68 134 155 132 147 148 86
1 12 6 10 13 349 345 307 268 168 162 166 138 138 137 141 148 158 178 190 188 187 188 186 184 185 187 182 179 183 187 188 189 194 188 180 175 168 169 168 171 163 178 178 181 169 159 176 180 183 126 88 106 118 100 59 116 89 136 150 111 150
51 50 25 24 18 8 0 6 339 272 154 120 120 130 143 151 162 169 183 195 196 191 193 192 193 192 187 187 183 180 184 189 196 188 185 178 164 161 168 173 176 179 178 178 188 170 177 174 180 165 153 150 125 117 80 77 112 120 80 70 156 169
101 93 70 64 54 24 14 33 35 139 170 160 158 154 154 156 159 168 188 197 198 203 195 198 192 196 190 186 187 183 184 192 192 183 180 175 173 168 168 169 171 168 176 181 186 182 175 159 167 160 154 155 153 166 170 172 180 171 151 143 124 147
112 109 108 111 95 55 28 64 113 157 176 183 175 177 178 177 176 182 188 194 198 194 206 197 194 194 195 189 181 188 190 185 185 182 183 183 177 170 162 152 155 167 180 185 178 177 173 160 169 166 169 169 171 173 154 153 176 165 160 158 154 152
114 132 131 136 137 130 152 177 173 175 182 182 212 192 185 182 182 183 184 186 181 200 196 193 203 199 206 186 179 180 181 183 187 191 177 170 179 166 156 153 156 163 168 172 178 176 171 179 172 174 184 186 162 168 170 138 148 153 124 124 135 137
136 140 133 144 159 165 168 179 181 178 171 168 213 220 204 186 186 186 180 184 186 189 187 199 195 206 197 182 179 182 179 183 186 179 173 169 168 167 162 162 163 163 172 179 170 177 178 172 174 177 151 156 176 177 160 155 153 145 146 133 145 154
154 191 164 162 167 174 180 180 178 180 175 169 169 224 222 204 184 184 185 181 188 182 186 195 194 196 172 175 175 174 177 177 177 173 166 159 162 164 167 159 164 168 161 162 174 172 174 165 169 163 161 172 176 170 164 165 158 165 159 161 155 159
192 198 194 172 181 181 185 186 181 179 185 169 168 198 216 215 202 196 184 181 183 182 189 183 189 163 179 167 168 172 175 176 169 165 167 163 162 163 161 156 154 151 155 161 158 170 172 172 177 170 172 159 155 183 167 170 172 166 170 165 157 157
236 212 208 198 195 197 190 182 187 184 179 176 173 185 195 192 194 198 188 185 171 176 167 179 170 173 162 168 165 166 165 161 164 165 161 164 163 161 158 155 156 155 157 161 157 167 161 174 178 165 159 167 177 171 175 171 171 170 165 158 167 168